Theta_e
314 316 318 318 319 320 319 320 324 326 328 329 330 333 336 339 338 339 337 337 335 335
318 317 314 315 319 317 319 323 323 325 326 328 331 334 335 334 334 335 329 324 326 326
315 314 314 316 316 317 318 320 320 320 320 321 322 325 330 330 326 327 325 325 325 325
312 314 316 316 318 314 315 316 317 319 319 317 317 321 324 327 328 325 325 325 323 324
311 313 315 316 316 314 313 314 313 316 316 316 316 316 320 325 327 327 325 321 320 321
306 307 310 313 314 313 313 312 312 315 313 315 315 316 317 321 324 325 326 323 320 321
302 304 306 310 312 314 314 312 311 312 313 315 316 316 317 318 321 324 321 321 321 321
302 303 304 307 309 312 315 313 313 314 314 316 318 319 318 319 321 321 319 320 320 321
301 301 301 303 305 308 313 312 310 312 314 315 319 308 307 311 320 321 319 319 319 321
300 300 300 301 303 307 310 310 308 308 313 314 316 305 304 308 321 321 320 320 318 320
298 299 300 300 301 302 308 309 308 307 312 312 315 307 307 307 317 316 318 318 316 316
298 297 297 299 301 302 304 306 306 309 311 313 314 303 303 307 316 317 314 320 317 316
297 298 296 298 299 300 301 303 306 309 312 311 312 302 302 305 312 315 317 316 315 307
295 295 296 298 298 301 301 306 306 307 311 312 311 310 299 299 313 313 315 314 313 311
Wind_Speed
5 5 5 4 3 3 3 4 8 11 13 11 11 13 12 9 13 15 13 17 14 1
7 7 6 7 5 4 5 5 6 8 10 12 12 11 10 8 10 10 8 6 5 8
8 7 7 5 6 5 6 5 5 6 6 7 9 10 11 11 6 10 9 8 12 13
7 7 7 7 6 6 5 5 5 5 6 6 7 8 9 12 14 13 15 13 13 16
7 6 7 7 7 7 7 5 5 6 7 8 9 9 10 11 13 16 17 15 14 12
8 8 7 8 8 8 7 7 5 6 7 8 9 9 9 12 16 16 17 16 16 13
6 7 8 9 9 9 8 7 6 8 8 9 11 12 14 12 15 16 14 13 12 12
12 12 12 12 9 10 11 8 8 7 7 8 8 10 13 16 15 14 11 10 10 11
16 16 15 14 13 9 10 10 7 7 8 8 4 11 20 13 15 11 10 11 14 14
17 18 17 15 16 12 7 7 11 8 7 7 6 8 9 22 6 5 7 6 6 6
18 18 15 15 14 15 7 8 10 8 8 5 7 6 5 9 13 4 3 6 5 4
12 15 16 17 9 8 5 6 7 6 9 6 5 10 9 4 2 8 8 1 7 7
15 12 15 14 11 9 7 10 10 9 11 9 5 9 12 11 5 7 9 5 7 10
14 13 13 13 10 9 11 7 6 11 10 6 6 7 14 11 8 6 7 6 5 4
Wind_Direction
213 220 225 228 232 256 265 281 293 298 295 283 271 271 270 262 247 242 241 244 273 66
203 203 221 236 216 223 259 279 312 320 315 313 307 290 281 275 271 257 188 210 133 127
203 215 231 229 233 228 247 249 279 287 293 292 300 298 289 278 248 223 201 206 217 215
216 217 217 224 222 232 224 235 261 267 275 289 296 292 274 269 271 234 237 229 225 214
299 261 219 228 228 232 249 238 246 249 250 274 285 297 291 274 268 260 243 235 223 203
333 306 284 268 237 229 237 244 245 259 263 266 264 264 269 264 259 256 249 229 215 196
304 306 312 298 276 267 244 228 222 245 251 256 271 276 275 273 256 252 232 219 206 183
297 298 296 292 288 279 267 252 233 250 264 265 276 290 305 293 266 221 196 197 207 196
287 287 284 281 276 271 274 258 242 239 252 271 277 327 312 273 259 209 180 196 198 211
284 283 276 272 268 257 246 265 255 240 236 253 253 267 340 336 293 219 136 138 167 195
284 280 284 281 269 272 249 222 248 239 240 225 265 263 329 321 327 10 124 108 119 125
290 294 281 278 278 247 249 283 255 237 238 204 228 206 240 249 299 302 291 356 178 173
283 288 291 281 276 269 246 260 268 261 241 207 221 210 208 209 196 254 239 206 167 148
285 283 282 272 262 261 252 238 281 257 236 195 187 174 222 215 221 227 189 170 156 138